Location: Rounton
(54.4000°N, 1.3500°W)
Time: 19:38:40
(UTC+00:00)

Altair - Pass Details

Date: 09 December 2021
Orbit: 1501 x 1683 km, 47.2° (Epoch: 16 January)

Event Time Altitude Azimuth Distance (km) Brightness Sun altitude
Rises 17:19:25 0° 263° (W) 4,759 11.8 -13.1°
Reaches altitude 10° 17:22:36 10° 259° (W) 3,751 10.9 -13.5°
Maximum altitude 17:31:43 56° 185° (S) 1,767 7.9 -14.8°
Enters shadow 17:40:25 11° 111° (ESE) 3,604 9.0 -16.0°
Drops below altitude 10° 17:40:35 10° 110° (ESE) 3,656 - -16.0°
Sets 17:43:38 0° 107° (ESE) 4,632 - -16.4°
